Location: Prague
(50.0830°N, 14.4670°E)
Time: 02:14:38
(UTC+01:00)

AO-7 - Pass Details

Date: 14 December 2021
Orbit: 1440 x 1459 km, 101.9° (Epoch: 28 January)

Event Time Altitude Azimuth Distance (km) Brightness Sun altitude
Rises 17:06:59 0° 215° (SW) 4,522 ? -10.1°
Reaches altitude 10° 17:10:59 10° 234° (SW) 3,549 ? -10.7°
Maximum altitude 17:16:13 18° 274° (W) 2,977 ? -11.4°
Drops below altitude 10° 17:21:29 10° 314° (NW) 3,564 ? -12.2°
Sets 17:25:34 0° 333° (NNW) 4,549 ? -12.8°
